DB0TGO-13 Weather Reports


time (UTC)temp
C
wind
direction
speed
KPH
gust
KPH
rain 1hr
cm
rain 24hr
cm
rain mn
cm
humidity
%
barometer
mb
20260906050009 12 280 12.9 0.0 0.00 0.00 0.00 82 1017.7
20260906044510 12 270 12.9 0.0 0.00 0.00 0.00 82 1017.5
20260906043009 12 270 12.9 0.0 0.00 0.00 0.00 82 1017.5
20260906041509 12 270 12.9 0.0 0.00 0.00 0.00 82 1017.4
20260906040009 12 270 12.9 0.0 0.00 0.00 0.00 82 1017.4
20260906034512 12 270 12.9 0.0 0.00 0.00 0.00 80 1017.1
20260906033010 12 280 16.1 0.0 0.00 0.00 0.00 80 1017.1
20260906031510 13 280 16.1 0.0 0.00 0.00 0.00 80 1017.1
20260906030008 13 280 16.1 0.0 0.00 0.00 0.00 80 1017.1
20260905204509 15 280 20.9 0.0 0.00 0.00 0.00 66 1014.1
20260905203009 15 280 20.9 0.0 0.00 0.00 0.00 66 1014.1
20260905201509 15 280 20.9 0.0 0.00 0.00 0.00 67 1013.8
20260905200010 15 290 22.5 0.0 0.00 0.00 0.00 67 1013.8
20260905194509 16 270 12.9 0.0 0.00 0.00 0.00 66 1013.5
20260905193009 16 270 12.9 0.0 0.00 0.00 0.00 66 1013.5
20260905191510 16 270 12.9 0.0 0.00 0.00 0.00 65 1013.1
20260905190009 16 290 16.1 0.0 0.00 0.00 0.00 65 1013.1
20260905184509 16 290 16.1 0.0 0.00 0.00 0.00 66 1012.6
20260905183010 16 270 16.1 0.0 0.00 0.00 0.00 66 1012.6
20260905181509 17 270 16.1 0.0 0.00 0.00 0.00 66 1012.2
20260905180010 17 280 20.9 0.0 0.00 0.00 0.00 66 1012.2
20260905174509 16 280 20.9 0.0 0.00 0.00 0.00 69 1012.0
20260905173010 16 280 17.7 0.0 0.00 0.00 0.00 69 1012.0
20260905171510 16 280 17.7 0.0 0.00 0.00 0.00 71 1011.6
20260905170009 16 280 16.1 0.0 0.00 0.00 0.00 71 1011.6
20260905164509 16 280 16.1 0.0 0.00 0.00 0.00 71 1011.3
20260905163009 16 290 24.1 0.0 0.00 0.00 0.00 71 1011.3
20260905161509 15 290 24.1 0.0 0.00 0.00 0.00 82 1011.1
20260905160010 15 290 17.7 0.0 0.00 0.00 0.00 82 1011.1
20260905154509 15 290 17.7 0.0 0.00 0.00 0.00 82 1011.3
20260905153011 15 270 22.5 0.0 0.00 0.00 0.00 82 1011.3
20260905151509 17 270 22.5 0.0 0.00 0.00 0.00 69 1010.7
20260905150010 17 290 29.0 0.0 0.00 0.00 0.00 69 1010.7
20260905144510 19 290 29.0 0.0 0.00 0.00 0.00 57 1009.6
20260905143009 19 250 29.0 0.0 0.00 0.00 0.00 57 1009.6
20260905141510 19 250 29.0 0.0 0.00 0.00 0.00 56 1009.8
20260905140009 19 260 33.8 0.0 0.00 0.00 0.00 56 1009.8
20260905134509 21 260 33.8 0.0 0.00 0.00 0.00 53 1009.4
20260905133010 21 250 24.1 0.0 0.00 0.00 0.00 53 1009.4
20260905131509 20 250 24.1 0.0 0.00 0.00 0.00 56 1009.6
20260905130010 20 260 22.5 0.0 0.00 0.00 0.00 56 1009.6
20260905124510 20 260 22.5 0.0 0.00 0.00 0.00 57 1009.7
20260905123009 20 260 27.4 0.0 0.00 0.00 0.00 57 1009.7
20260905121509 20 260 27.4 0.0 0.00 0.00 0.00 54 1009.6
20260905120010 20 270 27.4 0.0 0.00 0.00 0.00 54 1009.6
20260905114510 20 270 27.4 0.0 0.00 0.00 0.00 52 1009.4
20260905113009 20 260 20.9 0.0 0.00 0.00 0.00 52 1009.4
20260905111509 19 260 20.9 0.0 0.00 0.00 0.00 60 1009.6
20260905110009 19 250 17.7 0.0 0.00 0.00 0.00 60 1009.6
20260905104509 19 250 17.7 0.0 0.00 0.00 0.00 56 1009.7
20260905103009 19 260 27.4 0.0 0.00 0.00 0.00 56 1009.7
20260905101510 19 260 27.4 0.0 0.00 0.00 0.00 58 1009.7
20260905100009 19 260 24.1 0.0 0.00 0.00 0.00 58 1009.7
20260905094509 18 260 20.9 0.0 0.00 0.00 0.00 61 1009.5
20260905093010 18 260 20.9 0.0 0.00 0.00 0.00 61 1009.5
20260905091509 18 260 20.9 0.0 0.00 0.00 0.00 67 1009.5
20260905090010 18 270 20.9 0.0 0.00 0.00 0.00 67 1009.5
20260905084509 17 270 17.7 0.0 0.00 0.00 0.00 70 1009.2
20260905083009 17 270 17.7 0.0 0.00 0.00 0.00 70 1009.2
20260905081510 16 270 17.7 0.0 0.00 0.00 0.00 71 1008.9
20260905080010 16 250 19.3 0.0 0.00 0.00 0.00 71 1008.9
20260905074510 16 250 19.3 0.0 0.00 0.00 0.00 74 1008.8
20260905073009 16 260 17.7 0.0 0.00 0.00 0.00 74 1008.8
20260905071509 15 260 17.7 0.0 0.00 0.00 0.00 77 1008.6
20260905070009 15 260 17.7 0.0 0.00 0.00 0.00 77 1008.6
20260905064510 15 260 17.7 0.0 0.00 0.00 0.00 79 1008.3
20260905063010 15 260 17.7 0.0 0.00 0.00 0.00 79 1008.3
20260905061510 14 260 16.1 0.0 0.00 0.00 0.00 81 1008.0
20260905060009 14 260 16.1 0.0 0.00 0.00 0.00 81 1008.0
20260905054510 14 260 16.1 0.0 0.00 0.00 0.00 82 1007.9
20260905053021 14 260 17.7 0.0 0.00 0.00 0.00 82 1007.9
20260905051509 14 260 17.7 0.0 0.00 0.00 0.00 82 1007.5